Welcome to the New NWS' Forecast!
Most changes are behind the scenes, but click here for differences you might notice.
Latest weather observations around

Auburn-Opelika Airport (KAUO)

Using English Units (Switch to International System of Units)
Date/ Time (CDT) Wind (mph) Vis. (mi) Weather Sky Cond. Temp (°F) Rel. Humidity Wind Chill (°F) Heat Index (°F) Pressure Precip. (in)
Air Dwpt 6 hour Altimeter (inHg) Sea level (inHg) 1 hr 3 hr 6 hr
Max Min
Jul 16 08:56 SW 5 10 Cloudy OVC006 74 72     94%   75 30.11 30.14      
Notice The following observation data may not be complete
Jul 16 08:26   10 Cloudy OVC004          %              
Jul 16 07:56 SSW 3 7 Cloudy OVC002 72 71     97%   73 30.09 30.12      
Jul 16 07:21 Calm 4 Fog/Mist OVC002 72 72     100%   73 30.09        
Jul 16 07:18 Calm 1.25 Fog/Mist OVC002 72 72     100%   73 30.08        
Jul 16 07:15 Calm 0.75 Fog/Mist OVC002 72 72     100%   73 30.08        
Jul 16 05:56 Calm 0.25 Fog OVC002 71 71     100%   73 30.08 30.1      
Jul 16 05:44 SSW 5 0.25 Fog BKN002 72 72     100%   73 30.07        
Jul 16 05:31 SSW 3 0.75 Fog/Mist BKN002 72 70     94%   73 30.07        
Jul 16 05:27 SSW 3 1.75 Fog/Mist SCT002 72 70     94%   73 30.07        
Jul 16 05:23 S 3 5 Fog/Mist FEW002 72 72     100%   73 30.07        
Jul 16 04:56 S 3 10 Mostly Clear FEW070 71 71     100%   73 30.07 30.09      
Jul 16 03:56 WNW 3 10 Clear CLR 72 71     97%   73 30.07 30.09      
Jul 16 02:56 WSW 5 10 Clear CLR 72 71     97%   73 30.05 30.08      
Jul 16 01:56 W 5 10 Clear CLR 72 71     97%   73 30.05 30.08      
Jul 16 00:56 Calm 10 Clear CLR 72 71     97%   73 30.03 30.06      
Jul 15 23:56 ENE 3 10 Clear CLR 73 71     94%   74 30.04 30.06      
Jul 15 22:56 N 5 10 Clear CLR 73 70     90%   74 30.06        
Jul 15 22:41 NW 7 10 Partly Cloudy SCT011 73 72     94%   75 30.07        
Jul 15 21:56 W 6 10 Clear CLR 75 71     88%   76 30.09        
May 15 09:56 ENE 6 10 Cloudy BKN021 BKN026 OVC034 75 67     76%   76 30.02 30.05   0  
May 14 22:56 SE 6 10 Clear CLR 74 64     71%   74 30 30.02      
May 12 01:56 Calm 10 Clear CLR 69 59     70%     30.11 30.14      
Notice The following observation data may not be complete
Jun 12 07:35   10 Mostly Cloudy BKN004          %              
Jun 11 03:56 ESE 7 10 Clear CLR 71 65     81%   72 30.11 30.13      
Jun 08 23:56 Calm 10 Clear   68 61     78%     29.92 29.96      
Jun 08 19:56 Calm 10 Mostly Cloudy BKN050 BKN065 76 61     60%   76 29.89 29.92      
Jun 08 14:56 Calm 10 Mostly Cloudy SCT055 BKN075 78 57     48%   78 29.89 29.93      
Jun 08 06:56 ENE 9 10 Clear CLR 66 58     75%     29.9 29.94      
Jun 08 01:56 E 6 10 Cloudy BKN020 BKN026 OVC036 68 65     90%     29.86 29.89      
Jun 07 11:56 NE 13 10 Cloudy OVC021 76 67     74%   77 29.81 29.84      
Jun 06 10:52 NE 6 10 Mostly Cloudy BKN014 BKN039 77 72     83%   78 29.8        
Jun 06 10:19 N 5 10 Mostly Cloudy SCT011 BKN016 BKN024 75 72     89%   77 29.82        
Jun 06 04:38 SSE 3 10 Cloudy SCT002 OVC100 70 70     100%     29.82        
Jun 05 22:56 SE 5 10 Light Rain SCT026 BKN036 OVC085 73 72     96%   75 29.86 29.89 0    
Jun 05 16:56 SW 8 10 Partly Cloudy FEW019 SCT075 SCT100 79 71     77%   82 29.83 29.86